This is the latest recevied weather packets stored in our database for station/object KE8ZLU. If no packets are shown the sender has not sent any weather packets the latest 10 day(s).
| Time | Temp. | Humidity | Pressure | Rain* | Wind** | Luminosity | Snow |
|---|---|---|---|---|---|---|---|
| 1777347053 | 15.56° C | 95% | 1009.5 hPa | 1.78 mm | - | 0 W/m² | - |
| 1777346750 | 15.56° C | 94% | 1009.6 hPa | 3.05 mm | - | 0 W/m² | - |
| 1777346450 | 16.11° C | 93% | 1009.8 hPa | 4.83 mm | - | 0 W/m² | - |
| 1777346148 | 16.67° C | 89% | 1009.9 hPa | 0 mm | - | 0 W/m² | - |
| 1777345844 | 17.22° C | 85% | 1009.8 hPa | 0 mm | - | 0 W/m² | - |
| 1777345543 | 17.22° C | 84% | 1009.6 hPa | 0 mm | - | 0 W/m² | - |
| 1777345239 | 17.22° C | 84% | 1009.5 hPa | 0 mm | - | 0 W/m² | - |
| 1777344935 | 17.22° C | 83% | 1008.9 hPa | 0 mm | - | 0 W/m² | - |
| 1777344632 | 16.67° C | 84% | 1008.7 hPa | 0 mm | - | 0 W/m² | - |
| 1777344329 | 16.67° C | 84% | 1008.3 hPa | 0 mm | - | 0 W/m² | - |
| 1777344026 | 16.67° C | 83% | 1008.5 hPa | 0 mm | - | 0 W/m² | - |
| 1777343723 | 16.67° C | 83% | 1008.4 hPa | 0 mm | - | 0 W/m² | - |
| 1777343421 | 16.67° C | 84% | 1008.3 hPa | 0 mm | - | 0 W/m² | - |
| 1777343119 | 16.67° C | 83% | 1008.1 hPa | 0 mm | - | 0 W/m² | - |
| 1777342815 | 16.67° C | 83% | 1008.2 hPa | 0 mm | - | 0 W/m² | - |
| 1777342512 | 16.67° C | 83% | 1008.2 hPa | 0 mm | - | 0 W/m² | - |
| 1777342209 | 16.67° C | 83% | 1008.1 hPa | 0 mm | - | 0 W/m² | - |
| 1777341905 | 16.67° C | 83% | 1007.9 hPa | 0 mm | - | 0 W/m² | - |
| 1777341601 | 16.67° C | 83% | 1008 hPa | 0 mm | - | 0 W/m² | - |
| 1777341297 | 16.11° C | 83% | 1007.9 hPa | 0 mm | - | 0 W/m² | - |
| 1777340994 | 16.67° C | 83% | 1008.3 hPa | 0 mm | - | 0 W/m² | - |
| 1777340692 | 16.67° C | 82% | 1008.3 hPa | 0 mm | - | 0 W/m² | - |
| 1777340390 | 16.11° C | 83% | 1008.3 hPa | 0 mm | - | 0 W/m² | - |
| 1777340087 | 16.11° C | 83% | 1008.1 hPa | 0 mm | - | 0 W/m² | - |
| 1777339784 | 16.11° C | 83% | 1008.3 hPa | 0 mm | - | 0 W/m² | - |
* Rain latest hour (hover to see other rain measurements)
** Current wind speed in m/s (hover to see current wind gust speed)